Index of /20260501/WXO-DD/model_rdps/10km/12/032
Name Last modified Size Description
Parent Directory -
20260501T12Z_MSC_RDPS_AbsoluteVorticity_IsbL-0250_RLatLon0.09_PT032H.grib2 2026-05-01 15:07 606K
20260501T12Z_MSC_RDPS_AbsoluteVorticity_IsbL-0500_RLatLon0.09_PT032H.grib2 2026-05-01 15:07 565K
20260501T12Z_MSC_RDPS_AbsoluteVorticity_IsbL-0700_RLatLon0.09_PT032H.grib2 2026-05-01 15:07 627K
20260501T12Z_MSC_RDPS_AbsoluteVorticity_IsbL-0850_RLatLon0.09_PT032H.grib2 2026-05-01 15:07 780K
20260501T12Z_MSC_RDPS_AirTemp_AGL-120m_RLatLon0.09_PT032H.grib2 2026-05-01 15:07 393K
20260501T12Z_MSC_RDPS_AirTemp_AGL-2m_RLatLon0.09_PT032H.grib2 2026-05-01 15:07 629K
20260501T12Z_MSC_RDPS_AirTemp_AGL-40m_RLatLon0.09_PT032H.grib2 2026-05-01 15:07 402K
20260501T12Z_MSC_RDPS_AirTemp_AGL-80m_RLatLon0.09_PT032H.grib2 2026-05-01 15:07 396K
20260501T12Z_MSC_RDPS_AirTemp_IsbL-0001_RLatLon0.09_PT032H.grib2 2026-05-01 15:07 275K
20260501T12Z_MSC_RDPS_AirTemp_IsbL-0005_RLatLon0.09_PT032H.grib2 2026-05-01 15:07 290K
20260501T12Z_MSC_RDPS_AirTemp_IsbL-0010_RLatLon0.09_PT032H.grib2 2026-05-01 15:07 299K
20260501T12Z_MSC_RDPS_AirTemp_IsbL-0020_RLatLon0.09_PT032H.grib2 2026-05-01 15:07 409K
20260501T12Z_MSC_RDPS_AirTemp_IsbL-0030_RLatLon0.09_PT032H.grib2 2026-05-01 15:07 338K
20260501T12Z_MSC_RDPS_AirTemp_IsbL-0050_RLatLon0.09_PT032H.grib2 2026-05-01 15:07 313K
20260501T12Z_MSC_RDPS_AirTemp_IsbL-0100_RLatLon0.09_PT032H.grib2 2026-05-01 15:07 421K
20260501T12Z_MSC_RDPS_AirTemp_IsbL-0150_RLatLon0.09_PT032H.grib2 2026-05-01 15:07 416K
20260501T12Z_MSC_RDPS_AirTemp_IsbL-0175_RLatLon0.09_PT032H.grib2 2026-05-01 15:07 408K
20260501T12Z_MSC_RDPS_AirTemp_IsbL-0200_RLatLon0.09_PT032H.grib2 2026-05-01 15:07 414K
20260501T12Z_MSC_RDPS_AirTemp_IsbL-0225_RLatLon0.09_PT032H.grib2 2026-05-01 15:07 412K
20260501T12Z_MSC_RDPS_AirTemp_IsbL-0250_RLatLon0.09_PT032H.grib2 2026-05-01 15:07 417K
20260501T12Z_MSC_RDPS_AirTemp_IsbL-0275_RLatLon0.09_PT032H.grib2 2026-05-01 15:07 399K
20260501T12Z_MSC_RDPS_AirTemp_IsbL-0300_RLatLon0.09_PT032H.grib2 2026-05-01 15:07 407K
20260501T12Z_MSC_RDPS_AirTemp_IsbL-0350_RLatLon0.09_PT032H.grib2 2026-05-01 15:07 423K
20260501T12Z_MSC_RDPS_AirTemp_IsbL-0400_RLatLon0.09_PT032H.grib2 2026-05-01 15:07 389K
20260501T12Z_MSC_RDPS_AirTemp_IsbL-0450_RLatLon0.09_PT032H.grib2 2026-05-01 15:07 397K
20260501T12Z_MSC_RDPS_AirTemp_IsbL-0500_RLatLon0.09_PT032H.grib2 2026-05-01 15:07 408K
20260501T12Z_MSC_RDPS_AirTemp_IsbL-0550_RLatLon0.09_PT032H.grib2 2026-05-01 15:07 426K
20260501T12Z_MSC_RDPS_AirTemp_IsbL-0600_RLatLon0.09_PT032H.grib2 2026-05-01 15:07 445K
20260501T12Z_MSC_RDPS_AirTemp_IsbL-0650_RLatLon0.09_PT032H.grib2 2026-05-01 15:07 463K
20260501T12Z_MSC_RDPS_AirTemp_IsbL-0700_RLatLon0.09_PT032H.grib2 2026-05-01 15:07 385K
20260501T12Z_MSC_RDPS_AirTemp_IsbL-0750_RLatLon0.09_PT032H.grib2 2026-05-01 15:07 417K
20260501T12Z_MSC_RDPS_AirTemp_IsbL-0800_RLatLon0.09_PT032H.grib2 2026-05-01 15:07 455K
20260501T12Z_MSC_RDPS_AirTemp_IsbL-0850_RLatLon0.09_PT032H.grib2 2026-05-01 15:07 502K
20260501T12Z_MSC_RDPS_AirTemp_IsbL-0875_RLatLon0.09_PT032H.grib2 2026-05-01 15:07 523K
20260501T12Z_MSC_RDPS_AirTemp_IsbL-0900_RLatLon0.09_PT032H.grib2 2026-05-01 15:07 534K
20260501T12Z_MSC_RDPS_AirTemp_IsbL-0925_RLatLon0.09_PT032H.grib2 2026-05-01 15:07 529K
20260501T12Z_MSC_RDPS_AirTemp_IsbL-0950_RLatLon0.09_PT032H.grib2 2026-05-01 15:07 530K
20260501T12Z_MSC_RDPS_AirTemp_IsbL-0970_RLatLon0.09_PT032H.grib2 2026-05-01 15:07 526K
20260501T12Z_MSC_RDPS_AirTemp_IsbL-0985_RLatLon0.09_PT032H.grib2 2026-05-01 15:07 518K
20260501T12Z_MSC_RDPS_AirTemp_IsbL-1000_RLatLon0.09_PT032H.grib2 2026-05-01 15:07 502K
20260501T12Z_MSC_RDPS_AirTemp_IsbL-1015_RLatLon0.09_PT032H.grib2 2026-05-01 15:07 499K
20260501T12Z_MSC_RDPS_Albedo_Sfc_RLatLon0.09_PT032H.grib2 2026-05-01 15:07 162K
20260501T12Z_MSC_RDPS_CAPE_Sfc_RLatLon0.09_PT032H.grib2 2026-05-01 15:07 1.7M
20260501T12Z_MSC_RDPS_CIN_Sfc_RLatLon0.09_PT032H.grib2 2026-05-01 15:07 1.2M
20260501T12Z_MSC_RDPS_CloudWater_EAtm_RLatLon0.09_PT032H.grib2 2026-05-01 15:07 223K
20260501T12Z_MSC_RDPS_ConvectivePrecip-Accum_Sfc_RLatLon0.09_PT032H.grib2 2026-05-01 15:07 883K
20260501T12Z_MSC_RDPS_DewPointDepression_AGL-2m_RLatLon0.09_PT032H.grib2 2026-05-01 15:07 421K
20260501T12Z_MSC_RDPS_DewPointDepression_IsbL-0001_RLatLon0.09_PT032H.grib2 2026-05-01 15:07 193
20260501T12Z_MSC_RDPS_DewPointDepression_IsbL-0005_RLatLon0.09_PT032H.grib2 2026-05-01 15:07 193
20260501T12Z_MSC_RDPS_DewPointDepression_IsbL-0010_RLatLon0.09_PT032H.grib2 2026-05-01 15:07 193
20260501T12Z_MSC_RDPS_DewPointDepression_IsbL-0020_RLatLon0.09_PT032H.grib2 2026-05-01 15:07 193
20260501T12Z_MSC_RDPS_DewPointDepression_IsbL-0030_RLatLon0.09_PT032H.grib2 2026-05-01 15:07 193
20260501T12Z_MSC_RDPS_DewPointDepression_IsbL-0050_RLatLon0.09_PT032H.grib2 2026-05-01 15:07 105K
20260501T12Z_MSC_RDPS_DewPointDepression_IsbL-0100_RLatLon0.09_PT032H.grib2 2026-05-01 15:07 124K
20260501T12Z_MSC_RDPS_DewPointDepression_IsbL-0150_RLatLon0.09_PT032H.grib2 2026-05-01 15:07 151K
20260501T12Z_MSC_RDPS_DewPointDepression_IsbL-0175_RLatLon0.09_PT032H.grib2 2026-05-01 15:07 188K
20260501T12Z_MSC_RDPS_DewPointDepression_IsbL-0200_RLatLon0.09_PT032H.grib2 2026-05-01 15:07 221K
20260501T12Z_MSC_RDPS_DewPointDepression_IsbL-0225_RLatLon0.09_PT032H.grib2 2026-05-01 15:07 256K
20260501T12Z_MSC_RDPS_DewPointDepression_IsbL-0250_RLatLon0.09_PT032H.grib2 2026-05-01 15:07 292K
20260501T12Z_MSC_RDPS_DewPointDepression_IsbL-0275_RLatLon0.09_PT032H.grib2 2026-05-01 15:07 305K
20260501T12Z_MSC_RDPS_DewPointDepression_IsbL-0300_RLatLon0.09_PT032H.grib2 2026-05-01 15:07 323K
20260501T12Z_MSC_RDPS_DewPointDepression_IsbL-0350_RLatLon0.09_PT032H.grib2 2026-05-01 15:07 331K
20260501T12Z_MSC_RDPS_DewPointDepression_IsbL-0400_RLatLon0.09_PT032H.grib2 2026-05-01 15:07 339K
20260501T12Z_MSC_RDPS_DewPointDepression_IsbL-0450_RLatLon0.09_PT032H.grib2 2026-05-01 15:07 343K
20260501T12Z_MSC_RDPS_DewPointDepression_IsbL-0500_RLatLon0.09_PT032H.grib2 2026-05-01 15:07 351K
20260501T12Z_MSC_RDPS_DewPointDepression_IsbL-0550_RLatLon0.09_PT032H.grib2 2026-05-01 15:07 365K
20260501T12Z_MSC_RDPS_DewPointDepression_IsbL-0600_RLatLon0.09_PT032H.grib2 2026-05-01 15:07 380K
20260501T12Z_MSC_RDPS_DewPointDepression_IsbL-0650_RLatLon0.09_PT032H.grib2 2026-05-01 15:07 389K
20260501T12Z_MSC_RDPS_DewPointDepression_IsbL-0700_RLatLon0.09_PT032H.grib2 2026-05-01 15:07 404K
20260501T12Z_MSC_RDPS_DewPointDepression_IsbL-0750_RLatLon0.09_PT032H.grib2 2026-05-01 15:07 421K
20260501T12Z_MSC_RDPS_DewPointDepression_IsbL-0800_RLatLon0.09_PT032H.grib2 2026-05-01 15:07 449K
20260501T12Z_MSC_RDPS_DewPointDepression_IsbL-0850_RLatLon0.09_PT032H.grib2 2026-05-01 15:07 476K
20260501T12Z_MSC_RDPS_DewPointDepression_IsbL-0875_RLatLon0.09_PT032H.grib2 2026-05-01 15:07 479K
20260501T12Z_MSC_RDPS_DewPointDepression_IsbL-0900_RLatLon0.09_PT032H.grib2 2026-05-01 15:07 470K
20260501T12Z_MSC_RDPS_DewPointDepression_IsbL-0925_RLatLon0.09_PT032H.grib2 2026-05-01 15:07 453K
20260501T12Z_MSC_RDPS_DewPointDepression_IsbL-0950_RLatLon0.09_PT032H.grib2 2026-05-01 15:07 447K
20260501T12Z_MSC_RDPS_DewPointDepression_IsbL-0970_RLatLon0.09_PT032H.grib2 2026-05-01 15:07 440K
20260501T12Z_MSC_RDPS_DewPointDepression_IsbL-0985_RLatLon0.09_PT032H.grib2 2026-05-01 15:07 437K
20260501T12Z_MSC_RDPS_DewPointDepression_IsbL-1000_RLatLon0.09_PT032H.grib2 2026-05-01 15:07 430K
20260501T12Z_MSC_RDPS_DewPointDepression_IsbL-1015_RLatLon0.09_PT032H.grib2 2026-05-01 15:07 423K
20260501T12Z_MSC_RDPS_DewPoint_AGL-2m_RLatLon0.09_PT032H.grib2 2026-05-01 15:07 399K
20260501T12Z_MSC_RDPS_DownwardLongwaveRadiationFlux-Accum_Sfc_RLatLon0.09_PT032H.grib2 2026-05-01 15:07 485K
20260501T12Z_MSC_RDPS_DownwardShortwaveRadiationFlux-Accum_NTAtm_RLatLon0.09_PT032H.grib2 2026-05-01 15:07 155K
20260501T12Z_MSC_RDPS_DownwardShortwaveRadiationFlux-Accum_Sfc_RLatLon0.09_PT032H.grib2 2026-05-01 15:07 559K
20260501T12Z_MSC_RDPS_FreezingRain-Accum1h_Sfc_RLatLon0.09_PT032H.grib2 2026-05-01 15:07 18K
20260501T12Z_MSC_RDPS_FreezingRain-Accum_Sfc_RLatLon0.09_PT032H.grib2 2026-05-01 15:07 129K
20260501T12Z_MSC_RDPS_GeopotentialHeight_IsbL-0001_RLatLon0.09_PT032H.grib2 2026-05-01 15:07 244K
20260501T12Z_MSC_RDPS_GeopotentialHeight_IsbL-0005_RLatLon0.09_PT032H.grib2 2026-05-01 15:07 307K
20260501T12Z_MSC_RDPS_GeopotentialHeight_IsbL-0010_RLatLon0.09_PT032H.grib2 2026-05-01 15:07 308K
20260501T12Z_MSC_RDPS_GeopotentialHeight_IsbL-0020_RLatLon0.09_PT032H.grib2 2026-05-01 15:07 307K
20260501T12Z_MSC_RDPS_GeopotentialHeight_IsbL-0030_RLatLon0.09_PT032H.grib2 2026-05-01 15:07 310K
20260501T12Z_MSC_RDPS_GeopotentialHeight_IsbL-0050_RLatLon0.09_PT032H.grib2 2026-05-01 15:07 343K
20260501T12Z_MSC_RDPS_GeopotentialHeight_IsbL-0100_RLatLon0.09_PT032H.grib2 2026-05-01 15:07 285K
20260501T12Z_MSC_RDPS_GeopotentialHeight_IsbL-0150_RLatLon0.09_PT032H.grib2 2026-05-01 15:07 231K
20260501T12Z_MSC_RDPS_GeopotentialHeight_IsbL-0175_RLatLon0.09_PT032H.grib2 2026-05-01 15:07 264K
20260501T12Z_MSC_RDPS_GeopotentialHeight_IsbL-0200_RLatLon0.09_PT032H.grib2 2026-05-01 15:07 267K
20260501T12Z_MSC_RDPS_GeopotentialHeight_IsbL-0225_RLatLon0.09_PT032H.grib2 2026-05-01 15:07 268K
20260501T12Z_MSC_RDPS_GeopotentialHeight_IsbL-0250_RLatLon0.09_PT032H.grib2 2026-05-01 15:07 268K
20260501T12Z_MSC_RDPS_GeopotentialHeight_IsbL-0275_RLatLon0.09_PT032H.grib2 2026-05-01 15:07 267K
20260501T12Z_MSC_RDPS_GeopotentialHeight_IsbL-0300_RLatLon0.09_PT032H.grib2 2026-05-01 15:07 265K
20260501T12Z_MSC_RDPS_GeopotentialHeight_IsbL-0350_RLatLon0.09_PT032H.grib2 2026-05-01 15:07 231K
20260501T12Z_MSC_RDPS_GeopotentialHeight_IsbL-0400_RLatLon0.09_PT032H.grib2 2026-05-01 15:07 228K
20260501T12Z_MSC_RDPS_GeopotentialHeight_IsbL-0450_RLatLon0.09_PT032H.grib2 2026-05-01 15:07 297K
20260501T12Z_MSC_RDPS_GeopotentialHeight_IsbL-0500_RLatLon0.09_PT032H.grib2 2026-05-01 15:07 293K
20260501T12Z_MSC_RDPS_GeopotentialHeight_IsbL-0550_RLatLon0.09_PT032H.grib2 2026-05-01 15:07 289K
20260501T12Z_MSC_RDPS_GeopotentialHeight_IsbL-0600_RLatLon0.09_PT032H.grib2 2026-05-01 15:07 286K
20260501T12Z_MSC_RDPS_GeopotentialHeight_IsbL-0650_RLatLon0.09_PT032H.grib2 2026-05-01 15:07 258K
20260501T12Z_MSC_RDPS_GeopotentialHeight_IsbL-0700_RLatLon0.09_PT032H.grib2 2026-05-01 15:07 257K
20260501T12Z_MSC_RDPS_GeopotentialHeight_IsbL-0750_RLatLon0.09_PT032H.grib2 2026-05-01 15:07 344K
20260501T12Z_MSC_RDPS_GeopotentialHeight_IsbL-0800_RLatLon0.09_PT032H.grib2 2026-05-01 15:07 350K
20260501T12Z_MSC_RDPS_GeopotentialHeight_IsbL-0850_RLatLon0.09_PT032H.grib2 2026-05-01 15:07 358K
20260501T12Z_MSC_RDPS_GeopotentialHeight_IsbL-0875_RLatLon0.09_PT032H.grib2 2026-05-01 15:07 359K
20260501T12Z_MSC_RDPS_GeopotentialHeight_IsbL-0900_RLatLon0.09_PT032H.grib2 2026-05-01 15:07 365K
20260501T12Z_MSC_RDPS_GeopotentialHeight_IsbL-0925_RLatLon0.09_PT032H.grib2 2026-05-01 15:07 367K
20260501T12Z_MSC_RDPS_GeopotentialHeight_IsbL-0950_RLatLon0.09_PT032H.grib2 2026-05-01 15:07 372K
20260501T12Z_MSC_RDPS_GeopotentialHeight_IsbL-0970_RLatLon0.09_PT032H.grib2 2026-05-01 15:07 379K
20260501T12Z_MSC_RDPS_GeopotentialHeight_IsbL-0985_RLatLon0.09_PT032H.grib2 2026-05-01 15:07 388K
20260501T12Z_MSC_RDPS_GeopotentialHeight_IsbL-1000_RLatLon0.09_PT032H.grib2 2026-05-01 15:07 401K
20260501T12Z_MSC_RDPS_GeopotentialHeight_IsbL-1015_RLatLon0.09_PT032H.grib2 2026-05-01 15:07 416K
20260501T12Z_MSC_RDPS_Humidex_Sfc_RLatLon0.09_PT032H.grib2 2026-05-01 15:07 2.4M
20260501T12Z_MSC_RDPS_IcePellets-Accum1h_Sfc_RLatLon0.09_PT032H.grib2 2026-05-01 15:07 8.4K
20260501T12Z_MSC_RDPS_IcePellets-Accum_Sfc_RLatLon0.09_PT032H.grib2 2026-05-01 15:07 22K
20260501T12Z_MSC_RDPS_KIndex_Sfc_RLatLon0.09_PT032H.grib2 2026-05-01 15:07 2.4M
20260501T12Z_MSC_RDPS_LatentHeatNetFlux_Sfc_RLatLon0.09_PT032H.grib2 2026-05-01 15:07 310K
20260501T12Z_MSC_RDPS_LiftedIndex-MU-VT_IsbL-0500_RLatLon0.09_PT032H.grib2 2026-05-01 15:07 2.4M
20260501T12Z_MSC_RDPS_NetLongwaveRadiationFlux-Accum_Sfc_RLatLon0.09_PT032H.grib2 2026-05-01 15:07 632K
20260501T12Z_MSC_RDPS_NetShortwaveRadiationFlux-Accum_Sfc_RLatLon0.09_PT032H.grib2 2026-05-01 15:07 560K
20260501T12Z_MSC_RDPS_PlanetaryBoundaryLayerHeight_Sfc_RLatLon0.09_PT032H.grib2 2026-05-01 15:07 1.0M
20260501T12Z_MSC_RDPS_Precip-Accum1h_Sfc_RLatLon0.09_PT032H.grib2 2026-05-01 15:07 1.2M
20260501T12Z_MSC_RDPS_Precip-Accum_Sfc_RLatLon0.09_PT032H.grib2 2026-05-01 15:07 1.9M
20260501T12Z_MSC_RDPS_PrecipRate_Sfc_RLatLon0.09_PT032H.grib2 2026-05-01 15:07 133K
20260501T12Z_MSC_RDPS_PrecipType-Instant_Sfc_RLatLon0.09_PT032H.grib2 2026-05-01 15:07 593K
20260501T12Z_MSC_RDPS_Pressure-Trend3h_Sfc_RLatLon0.09_PT032H.grib2 2026-05-01 15:07 1.2M
20260501T12Z_MSC_RDPS_Pressure_MSL_RLatLon0.09_PT032H.grib2 2026-05-01 15:07 330K
20260501T12Z_MSC_RDPS_Pressure_PVU-1.5_RLatLon0.09_PT032H.grib2 2026-05-01 15:07 2.5M
20260501T12Z_MSC_RDPS_Pressure_PVU-1_RLatLon0.09_PT032H.grib2 2026-05-01 15:07 2.4M
20260501T12Z_MSC_RDPS_Pressure_PVU-2_RLatLon0.09_PT032H.grib2 2026-05-01 15:07 2.4M
20260501T12Z_MSC_RDPS_Pressure_Sfc_RLatLon0.09_PT032H.grib2 2026-05-01 15:07 499K
20260501T12Z_MSC_RDPS_RadiativeTemp_Sfc_RLatLon0.09_PT032H.grib2 2026-05-01 15:07 330K
20260501T12Z_MSC_RDPS_Rain-Accum1h_Sfc_RLatLon0.09_PT032H.grib2 2026-05-01 15:07 539K
20260501T12Z_MSC_RDPS_Rain-Accum_Sfc_RLatLon0.09_PT032H.grib2 2026-05-01 15:07 1.5M
20260501T12Z_MSC_RDPS_RelativeHumidity_AGL-2m_RLatLon0.09_PT032H.grib2 2026-05-01 15:07 1.0M
20260501T12Z_MSC_RDPS_RelativeHumidity_IsbL-0010_RLatLon0.09_PT032H.grib2 2026-05-01 15:07 628K
20260501T12Z_MSC_RDPS_RelativeHumidity_IsbL-0020_RLatLon0.09_PT032H.grib2 2026-05-01 15:07 673K
20260501T12Z_MSC_RDPS_RelativeHumidity_IsbL-0030_RLatLon0.09_PT032H.grib2 2026-05-01 15:07 606K
20260501T12Z_MSC_RDPS_RelativeHumidity_IsbL-0050_RLatLon0.09_PT032H.grib2 2026-05-01 15:07 361K
20260501T12Z_MSC_RDPS_RelativeHumidity_IsbL-0100_RLatLon0.09_PT032H.grib2 2026-05-01 15:07 277K
20260501T12Z_MSC_RDPS_RelativeHumidity_IsbL-0150_RLatLon0.09_PT032H.grib2 2026-05-01 15:07 410K
20260501T12Z_MSC_RDPS_RelativeHumidity_IsbL-0175_RLatLon0.09_PT032H.grib2 2026-05-01 15:07 474K
20260501T12Z_MSC_RDPS_RelativeHumidity_IsbL-0200_RLatLon0.09_PT032H.grib2 2026-05-01 15:07 549K
20260501T12Z_MSC_RDPS_RelativeHumidity_IsbL-0225_RLatLon0.09_PT032H.grib2 2026-05-01 15:07 612K
20260501T12Z_MSC_RDPS_RelativeHumidity_IsbL-0250_RLatLon0.09_PT032H.grib2 2026-05-01 15:07 674K
20260501T12Z_MSC_RDPS_RelativeHumidity_IsbL-0275_RLatLon0.09_PT032H.grib2 2026-05-01 15:07 699K
20260501T12Z_MSC_RDPS_RelativeHumidity_IsbL-0300_RLatLon0.09_PT032H.grib2 2026-05-01 15:07 741K
20260501T12Z_MSC_RDPS_RelativeHumidity_IsbL-0350_RLatLon0.09_PT032H.grib2 2026-05-01 15:07 769K
20260501T12Z_MSC_RDPS_RelativeHumidity_IsbL-0400_RLatLon0.09_PT032H.grib2 2026-05-01 15:07 781K
20260501T12Z_MSC_RDPS_RelativeHumidity_IsbL-0450_RLatLon0.09_PT032H.grib2 2026-05-01 15:07 787K
20260501T12Z_MSC_RDPS_RelativeHumidity_IsbL-0500_RLatLon0.09_PT032H.grib2 2026-05-01 15:07 796K
20260501T12Z_MSC_RDPS_RelativeHumidity_IsbL-0550_RLatLon0.09_PT032H.grib2 2026-05-01 15:07 819K
20260501T12Z_MSC_RDPS_RelativeHumidity_IsbL-0600_RLatLon0.09_PT032H.grib2 2026-05-01 15:07 844K
20260501T12Z_MSC_RDPS_RelativeHumidity_IsbL-0650_RLatLon0.09_PT032H.grib2 2026-05-01 15:07 861K
20260501T12Z_MSC_RDPS_RelativeHumidity_IsbL-0700_RLatLon0.09_PT032H.grib2 2026-05-01 15:07 899K
20260501T12Z_MSC_RDPS_RelativeHumidity_IsbL-0750_RLatLon0.09_PT032H.grib2 2026-05-01 15:07 938K
20260501T12Z_MSC_RDPS_RelativeHumidity_IsbL-0800_RLatLon0.09_PT032H.grib2 2026-05-01 15:07 1.0M
20260501T12Z_MSC_RDPS_RelativeHumidity_IsbL-0850_RLatLon0.09_PT032H.grib2 2026-05-01 15:07 1.0M
20260501T12Z_MSC_RDPS_RelativeHumidity_IsbL-0875_RLatLon0.09_PT032H.grib2 2026-05-01 15:07 1.1M
20260501T12Z_MSC_RDPS_RelativeHumidity_IsbL-0900_RLatLon0.09_PT032H.grib2 2026-05-01 15:07 1.1M
20260501T12Z_MSC_RDPS_RelativeHumidity_IsbL-0925_RLatLon0.09_PT032H.grib2 2026-05-01 15:07 1.1M
20260501T12Z_MSC_RDPS_RelativeHumidity_IsbL-0950_RLatLon0.09_PT032H.grib2 2026-05-01 15:07 1.1M
20260501T12Z_MSC_RDPS_RelativeHumidity_IsbL-0970_RLatLon0.09_PT032H.grib2 2026-05-01 15:07 1.0M
20260501T12Z_MSC_RDPS_RelativeHumidity_IsbL-0985_RLatLon0.09_PT032H.grib2 2026-05-01 15:07 1.0M
20260501T12Z_MSC_RDPS_RelativeHumidity_IsbL-1000_RLatLon0.09_PT032H.grib2 2026-05-01 15:07 1.0M
20260501T12Z_MSC_RDPS_RelativeHumidity_IsbL-1015_RLatLon0.09_PT032H.grib2 2026-05-01 15:07 1.0M
20260501T12Z_MSC_RDPS_Runoff-Accum_Sfc_RLatLon0.09_PT032H.grib2 2026-05-01 15:07 64K
20260501T12Z_MSC_RDPS_SWEATIndex_Sfc_RLatLon0.09_PT032H.grib2 2026-05-01 15:07 2.4M
20260501T12Z_MSC_RDPS_SeeingIndex_EAtm_RLatLon0.09_PT032H.grib2 2026-05-01 15:07 1.0M
20260501T12Z_MSC_RDPS_SensibleHeatNetFlux_Sfc_RLatLon0.09_PT032H.grib2 2026-05-01 15:07 281K
20260501T12Z_MSC_RDPS_ShowalterIndex_IsbL-0500_RLatLon0.09_PT032H.grib2 2026-05-01 15:07 2.6M
20260501T12Z_MSC_RDPS_SkyTransparencyIndex_EAtm_RLatLon0.09_PT032H.grib2 2026-05-01 15:07 721K
20260501T12Z_MSC_RDPS_Snow-Accum1h_Sfc_RLatLon0.09_PT032H.grib2 2026-05-01 15:07 451K
20260501T12Z_MSC_RDPS_Snow-Accum_Sfc_RLatLon0.09_PT032H.grib2 2026-05-01 15:07 653K
20260501T12Z_MSC_RDPS_SnowDensity_Sfc_RLatLon0.09_PT032H.grib2 2026-05-01 15:07 170K
20260501T12Z_MSC_RDPS_SnowDepth_Sfc_RLatLon0.09_PT032H.grib2 2026-05-01 15:07 663K
20260501T12Z_MSC_RDPS_SoilTemp_DBS-0to10cm_RLatLon0.09_PT032H.grib2 2026-05-01 15:07 236K
20260501T12Z_MSC_RDPS_SoilTemp_Sfc_RLatLon0.09_PT032H.grib2 2026-05-01 15:07 297K
20260501T12Z_MSC_RDPS_SoilVolumetricIceContent_Sfc_RLatLon0.09_PT032H.grib2 2026-05-01 15:07 159K
20260501T12Z_MSC_RDPS_SoilVolumetricWaterContent_DBS-0to10cm_RLatLon0.09_PT032H.grib2 2026-05-01 15:07 272K
20260501T12Z_MSC_RDPS_SoilVolumetricWaterContent_DBS-0to1cm_RLatLon0.09_PT032H.grib2 2026-05-01 15:07 342K
20260501T12Z_MSC_RDPS_SpecificHumidity_AGL-120m_RLatLon0.09_PT032H.grib2 2026-05-01 15:07 499K
20260501T12Z_MSC_RDPS_SpecificHumidity_AGL-2m_RLatLon0.09_PT032H.grib2 2026-05-01 15:07 666K
20260501T12Z_MSC_RDPS_SpecificHumidity_AGL-40m_RLatLon0.09_PT032H.grib2 2026-05-01 15:07 502K
20260501T12Z_MSC_RDPS_SpecificHumidity_AGL-80m_RLatLon0.09_PT032H.grib2 2026-05-01 15:07 500K
20260501T12Z_MSC_RDPS_SpecificHumidity_IsbL-0001_RLatLon0.09_PT032H.grib2 2026-05-01 15:07 407K
20260501T12Z_MSC_RDPS_SpecificHumidity_IsbL-0005_RLatLon0.09_PT032H.grib2 2026-05-01 15:07 364K
20260501T12Z_MSC_RDPS_SpecificHumidity_IsbL-0010_RLatLon0.09_PT032H.grib2 2026-05-01 15:07 396K
20260501T12Z_MSC_RDPS_SpecificHumidity_IsbL-0020_RLatLon0.09_PT032H.grib2 2026-05-01 15:07 379K
20260501T12Z_MSC_RDPS_SpecificHumidity_IsbL-0030_RLatLon0.09_PT032H.grib2 2026-05-01 15:07 372K
20260501T12Z_MSC_RDPS_SpecificHumidity_IsbL-0050_RLatLon0.09_PT032H.grib2 2026-05-01 15:07 484K
20260501T12Z_MSC_RDPS_SpecificHumidity_IsbL-0100_RLatLon0.09_PT032H.grib2 2026-05-01 15:07 446K
20260501T12Z_MSC_RDPS_SpecificHumidity_IsbL-0150_RLatLon0.09_PT032H.grib2 2026-05-01 15:07 452K
20260501T12Z_MSC_RDPS_SpecificHumidity_IsbL-0175_RLatLon0.09_PT032H.grib2 2026-05-01 15:07 434K
20260501T12Z_MSC_RDPS_SpecificHumidity_IsbL-0200_RLatLon0.09_PT032H.grib2 2026-05-01 15:07 446K
20260501T12Z_MSC_RDPS_SpecificHumidity_IsbL-0225_RLatLon0.09_PT032H.grib2 2026-05-01 15:07 448K
20260501T12Z_MSC_RDPS_SpecificHumidity_IsbL-0250_RLatLon0.09_PT032H.grib2 2026-05-01 15:07 507K
20260501T12Z_MSC_RDPS_SpecificHumidity_IsbL-0275_RLatLon0.09_PT032H.grib2 2026-05-01 15:07 467K
20260501T12Z_MSC_RDPS_SpecificHumidity_IsbL-0300_RLatLon0.09_PT032H.grib2 2026-05-01 15:07 442K
20260501T12Z_MSC_RDPS_SpecificHumidity_IsbL-0350_RLatLon0.09_PT032H.grib2 2026-05-01 15:07 439K
20260501T12Z_MSC_RDPS_SpecificHumidity_IsbL-0400_RLatLon0.09_PT032H.grib2 2026-05-01 15:07 516K
20260501T12Z_MSC_RDPS_SpecificHumidity_IsbL-0450_RLatLon0.09_PT032H.grib2 2026-05-01 15:07 566K
20260501T12Z_MSC_RDPS_SpecificHumidity_IsbL-0500_RLatLon0.09_PT032H.grib2 2026-05-01 15:07 503K
20260501T12Z_MSC_RDPS_SpecificHumidity_IsbL-0550_RLatLon0.09_PT032H.grib2 2026-05-01 15:07 580K
20260501T12Z_MSC_RDPS_SpecificHumidity_IsbL-0600_RLatLon0.09_PT032H.grib2 2026-05-01 15:07 517K
20260501T12Z_MSC_RDPS_SpecificHumidity_IsbL-0650_RLatLon0.09_PT032H.grib2 2026-05-01 15:07 559K
20260501T12Z_MSC_RDPS_SpecificHumidity_IsbL-0700_RLatLon0.09_PT032H.grib2 2026-05-01 15:07 607K
20260501T12Z_MSC_RDPS_SpecificHumidity_IsbL-0750_RLatLon0.09_PT032H.grib2 2026-05-01 15:07 663K
20260501T12Z_MSC_RDPS_SpecificHumidity_IsbL-0800_RLatLon0.09_PT032H.grib2 2026-05-01 15:07 742K
20260501T12Z_MSC_RDPS_SpecificHumidity_IsbL-0850_RLatLon0.09_PT032H.grib2 2026-05-01 15:07 814K
20260501T12Z_MSC_RDPS_SpecificHumidity_IsbL-0875_RLatLon0.09_PT032H.grib2 2026-05-01 15:07 840K
20260501T12Z_MSC_RDPS_SpecificHumidity_IsbL-0900_RLatLon0.09_PT032H.grib2 2026-05-01 15:07 713K
20260501T12Z_MSC_RDPS_SpecificHumidity_IsbL-0925_RLatLon0.09_PT032H.grib2 2026-05-01 15:07 712K
20260501T12Z_MSC_RDPS_SpecificHumidity_IsbL-0950_RLatLon0.09_PT032H.grib2 2026-05-01 15:07 714K
20260501T12Z_MSC_RDPS_SpecificHumidity_IsbL-0970_RLatLon0.09_PT032H.grib2 2026-05-01 15:07 706K
20260501T12Z_MSC_RDPS_SpecificHumidity_IsbL-0985_RLatLon0.09_PT032H.grib2 2026-05-01 15:07 699K
20260501T12Z_MSC_RDPS_SpecificHumidity_IsbL-1000_RLatLon0.09_PT032H.grib2 2026-05-01 15:07 693K
20260501T12Z_MSC_RDPS_SpecificHumidity_IsbL-1015_RLatLon0.09_PT032H.grib2 2026-05-01 15:07 682K
20260501T12Z_MSC_RDPS_SpecificHumidity_Sfc_RLatLon0.09_PT032H.grib2 2026-05-01 15:07 346K
20260501T12Z_MSC_RDPS_StormRelativeHelicity_EtaL-10000_RLatLon0.09_PT032H.grib2 2026-05-01 15:07 1.1M
20260501T12Z_MSC_RDPS_StormSeverityIndex_EtaL-10000_RLatLon0.09_PT032H.grib2 2026-05-01 15:07 1.2M
20260501T12Z_MSC_RDPS_Thickness_IsbL-0850to0700_RLatLon0.09_PT032H.grib2 2026-05-01 15:07 179K
20260501T12Z_MSC_RDPS_Thickness_IsbL-1000to0500_RLatLon0.09_PT032H.grib2 2026-05-01 15:07 200K
20260501T12Z_MSC_RDPS_Thickness_IsbL-1000to0850_RLatLon0.09_PT032H.grib2 2026-05-01 15:07 188K
20260501T12Z_MSC_RDPS_TotalCloudCover_Sfc_RLatLon0.09_PT032H.grib2 2026-05-01 15:07 646K
20260501T12Z_MSC_RDPS_TotalTotalsIndex_Sfc_RLatLon0.09_PT032H.grib2 2026-05-01 15:07 2.3M
20260501T12Z_MSC_RDPS_UVIndex-ClearSky_Sfc_RLatLon0.09_PT032H.grib2 2026-05-01 15:07 216K
20260501T12Z_MSC_RDPS_UVIndex_Sfc_RLatLon0.09_PT032H.grib2 2026-05-01 15:07 508K
20260501T12Z_MSC_RDPS_UpwardLongwaveRadiationFlux_NTAtm_RLatLon0.09_PT032H.grib2 2026-05-01 15:07 379K
20260501T12Z_MSC_RDPS_UpwardShortwaveRadiationFlux_NTAtm_RLatLon0.09_PT032H.grib2 2026-05-01 15:07 540K
20260501T12Z_MSC_RDPS_VerticalVelocity_IsbL-0250_RLatLon0.09_PT032H.grib2 2026-05-01 15:07 549K
20260501T12Z_MSC_RDPS_VerticalVelocity_IsbL-0500_RLatLon0.09_PT032H.grib2 2026-05-01 15:07 538K
20260501T12Z_MSC_RDPS_VerticalVelocity_IsbL-0700_RLatLon0.09_PT032H.grib2 2026-05-01 15:07 599K
20260501T12Z_MSC_RDPS_VerticalVelocity_IsbL-0850_RLatLon0.09_PT032H.grib2 2026-05-01 15:07 704K
20260501T12Z_MSC_RDPS_VerticalWindShear_EtaL-6500_RLatLon0.09_PT032H.grib2 2026-05-01 15:07 1.2M
20260501T12Z_MSC_RDPS_WindChill_Sfc_RLatLon0.09_PT032H.grib2 2026-05-01 15:07 1.1M
20260501T12Z_MSC_RDPS_WindDir_AGL-10m_RLatLon0.09_PT032H.grib2 2026-05-01 15:07 951K
20260501T12Z_MSC_RDPS_WindDir_AGL-120m_RLatLon0.09_PT032H.grib2 2026-05-01 15:07 599K
20260501T12Z_MSC_RDPS_WindDir_AGL-40m_RLatLon0.09_PT032H.grib2 2026-05-01 15:07 620K
20260501T12Z_MSC_RDPS_WindDir_AGL-80m_RLatLon0.09_PT032H.grib2 2026-05-01 15:07 607K
20260501T12Z_MSC_RDPS_WindDir_IsbL-0001_RLatLon0.09_PT032H.grib2 2026-05-01 15:07 278K
20260501T12Z_MSC_RDPS_WindDir_IsbL-0005_RLatLon0.09_PT032H.grib2 2026-05-01 15:07 367K
20260501T12Z_MSC_RDPS_WindDir_IsbL-0010_RLatLon0.09_PT032H.grib2 2026-05-01 15:07 389K
20260501T12Z_MSC_RDPS_WindDir_IsbL-0020_RLatLon0.09_PT032H.grib2 2026-05-01 15:07 427K
20260501T12Z_MSC_RDPS_WindDir_IsbL-0030_RLatLon0.09_PT032H.grib2 2026-05-01 15:07 421K
20260501T12Z_MSC_RDPS_WindDir_IsbL-0050_RLatLon0.09_PT032H.grib2 2026-05-01 15:07 415K
20260501T12Z_MSC_RDPS_WindDir_IsbL-0100_RLatLon0.09_PT032H.grib2 2026-05-01 15:07 419K
20260501T12Z_MSC_RDPS_WindDir_IsbL-0150_RLatLon0.09_PT032H.grib2 2026-05-01 15:07 405K
20260501T12Z_MSC_RDPS_WindDir_IsbL-0175_RLatLon0.09_PT032H.grib2 2026-05-01 15:07 423K
20260501T12Z_MSC_RDPS_WindDir_IsbL-0200_RLatLon0.09_PT032H.grib2 2026-05-01 15:07 434K
20260501T12Z_MSC_RDPS_WindDir_IsbL-0225_RLatLon0.09_PT032H.grib2 2026-05-01 15:07 440K
20260501T12Z_MSC_RDPS_WindDir_IsbL-0250_RLatLon0.09_PT032H.grib2 2026-05-01 15:07 444K
20260501T12Z_MSC_RDPS_WindDir_IsbL-0275_RLatLon0.09_PT032H.grib2 2026-05-01 15:07 464K
20260501T12Z_MSC_RDPS_WindDir_IsbL-0300_RLatLon0.09_PT032H.grib2 2026-05-01 15:07 468K
20260501T12Z_MSC_RDPS_WindDir_IsbL-0350_RLatLon0.09_PT032H.grib2 2026-05-01 15:07 494K
20260501T12Z_MSC_RDPS_WindDir_IsbL-0400_RLatLon0.09_PT032H.grib2 2026-05-01 15:07 511K
20260501T12Z_MSC_RDPS_WindDir_IsbL-0450_RLatLon0.09_PT032H.grib2 2026-05-01 15:07 525K
20260501T12Z_MSC_RDPS_WindDir_IsbL-0500_RLatLon0.09_PT032H.grib2 2026-05-01 15:07 536K
20260501T12Z_MSC_RDPS_WindDir_IsbL-0550_RLatLon0.09_PT032H.grib2 2026-05-01 15:07 551K
20260501T12Z_MSC_RDPS_WindDir_IsbL-0600_RLatLon0.09_PT032H.grib2 2026-05-01 15:07 580K
20260501T12Z_MSC_RDPS_WindDir_IsbL-0650_RLatLon0.09_PT032H.grib2 2026-05-01 15:07 617K
20260501T12Z_MSC_RDPS_WindDir_IsbL-0700_RLatLon0.09_PT032H.grib2 2026-05-01 15:07 660K
20260501T12Z_MSC_RDPS_WindDir_IsbL-0750_RLatLon0.09_PT032H.grib2 2026-05-01 15:07 708K
20260501T12Z_MSC_RDPS_WindDir_IsbL-0800_RLatLon0.09_PT032H.grib2 2026-05-01 15:07 771K
20260501T12Z_MSC_RDPS_WindDir_IsbL-0850_RLatLon0.09_PT032H.grib2 2026-05-01 15:07 849K
20260501T12Z_MSC_RDPS_WindDir_IsbL-0875_RLatLon0.09_PT032H.grib2 2026-05-01 15:07 878K
20260501T12Z_MSC_RDPS_WindDir_IsbL-0900_RLatLon0.09_PT032H.grib2 2026-05-01 15:07 895K
20260501T12Z_MSC_RDPS_WindDir_IsbL-0925_RLatLon0.09_PT032H.grib2 2026-05-01 15:07 905K
20260501T12Z_MSC_RDPS_WindDir_IsbL-0950_RLatLon0.09_PT032H.grib2 2026-05-01 15:07 900K
20260501T12Z_MSC_RDPS_WindDir_IsbL-0970_RLatLon0.09_PT032H.grib2 2026-05-01 15:07 908K
20260501T12Z_MSC_RDPS_WindDir_IsbL-0985_RLatLon0.09_PT032H.grib2 2026-05-01 15:07 916K
20260501T12Z_MSC_RDPS_WindDir_IsbL-1000_RLatLon0.09_PT032H.grib2 2026-05-01 15:07 928K
20260501T12Z_MSC_RDPS_WindDir_IsbL-1015_RLatLon0.09_PT032H.grib2 2026-05-01 15:07 944K
20260501T12Z_MSC_RDPS_WindGust-Max_AGL-10m_RLatLon0.09_PT032H.grib2 2026-05-01 15:07 947K
20260501T12Z_MSC_RDPS_WindGust-Min_AGL-10m_RLatLon0.09_PT032H.grib2 2026-05-01 15:07 1.0M
20260501T12Z_MSC_RDPS_WindGust_AGL-10m_RLatLon0.09_PT032H.grib2 2026-05-01 15:07 1.0M
20260501T12Z_MSC_RDPS_WindSpeed_AGL-10m_RLatLon0.09_PT032H.grib2 2026-05-01 15:07 836K
20260501T12Z_MSC_RDPS_WindSpeed_AGL-120m_RLatLon0.09_PT032H.grib2 2026-05-01 15:07 533K
20260501T12Z_MSC_RDPS_WindSpeed_AGL-40m_RLatLon0.09_PT032H.grib2 2026-05-01 15:07 536K
20260501T12Z_MSC_RDPS_WindSpeed_AGL-80m_RLatLon0.09_PT032H.grib2 2026-05-01 15:07 533K
20260501T12Z_MSC_RDPS_WindSpeed_IsbL-0001_RLatLon0.09_PT032H.grib2 2026-05-01 15:07 252K
20260501T12Z_MSC_RDPS_WindSpeed_IsbL-0005_RLatLon0.09_PT032H.grib2 2026-05-01 15:07 346K
20260501T12Z_MSC_RDPS_WindSpeed_IsbL-0010_RLatLon0.09_PT032H.grib2 2026-05-01 15:07 396K
20260501T12Z_MSC_RDPS_WindSpeed_IsbL-0020_RLatLon0.09_PT032H.grib2 2026-05-01 15:07 319K
20260501T12Z_MSC_RDPS_WindSpeed_IsbL-0030_RLatLon0.09_PT032H.grib2 2026-05-01 15:07 318K
20260501T12Z_MSC_RDPS_WindSpeed_IsbL-0050_RLatLon0.09_PT032H.grib2 2026-05-01 15:07 347K
20260501T12Z_MSC_RDPS_WindSpeed_IsbL-0100_RLatLon0.09_PT032H.grib2 2026-05-01 15:07 474K
20260501T12Z_MSC_RDPS_WindSpeed_IsbL-0150_RLatLon0.09_PT032H.grib2 2026-05-01 15:07 382K
20260501T12Z_MSC_RDPS_WindSpeed_IsbL-0175_RLatLon0.09_PT032H.grib2 2026-05-01 15:07 407K
20260501T12Z_MSC_RDPS_WindSpeed_IsbL-0200_RLatLon0.09_PT032H.grib2 2026-05-01 15:07 443K
20260501T12Z_MSC_RDPS_WindSpeed_IsbL-0225_RLatLon0.09_PT032H.grib2 2026-05-01 15:07 447K
20260501T12Z_MSC_RDPS_WindSpeed_IsbL-0250_RLatLon0.09_PT032H.grib2 2026-05-01 15:07 449K
20260501T12Z_MSC_RDPS_WindSpeed_IsbL-0275_RLatLon0.09_PT032H.grib2 2026-05-01 15:07 465K
20260501T12Z_MSC_RDPS_WindSpeed_IsbL-0300_RLatLon0.09_PT032H.grib2 2026-05-01 15:07 463K
20260501T12Z_MSC_RDPS_WindSpeed_IsbL-0350_RLatLon0.09_PT032H.grib2 2026-05-01 15:07 476K
20260501T12Z_MSC_RDPS_WindSpeed_IsbL-0400_RLatLon0.09_PT032H.grib2 2026-05-01 15:07 478K
20260501T12Z_MSC_RDPS_WindSpeed_IsbL-0450_RLatLon0.09_PT032H.grib2 2026-05-01 15:07 461K
20260501T12Z_MSC_RDPS_WindSpeed_IsbL-0500_RLatLon0.09_PT032H.grib2 2026-05-01 15:07 462K
20260501T12Z_MSC_RDPS_WindSpeed_IsbL-0550_RLatLon0.09_PT032H.grib2 2026-05-01 15:07 584K
20260501T12Z_MSC_RDPS_WindSpeed_IsbL-0600_RLatLon0.09_PT032H.grib2 2026-05-01 15:07 596K
20260501T12Z_MSC_RDPS_WindSpeed_IsbL-0650_RLatLon0.09_PT032H.grib2 2026-05-01 15:07 657K
20260501T12Z_MSC_RDPS_WindSpeed_IsbL-0700_RLatLon0.09_PT032H.grib2 2026-05-01 15:07 684K
20260501T12Z_MSC_RDPS_WindSpeed_IsbL-0750_RLatLon0.09_PT032H.grib2 2026-05-01 15:07 714K
20260501T12Z_MSC_RDPS_WindSpeed_IsbL-0800_RLatLon0.09_PT032H.grib2 2026-05-01 15:07 759K
20260501T12Z_MSC_RDPS_WindSpeed_IsbL-0850_RLatLon0.09_PT032H.grib2 2026-05-01 15:07 768K
20260501T12Z_MSC_RDPS_WindSpeed_IsbL-0875_RLatLon0.09_PT032H.grib2 2026-05-01 15:07 789K
20260501T12Z_MSC_RDPS_WindSpeed_IsbL-0900_RLatLon0.09_PT032H.grib2 2026-05-01 15:07 849K
20260501T12Z_MSC_RDPS_WindSpeed_IsbL-0925_RLatLon0.09_PT032H.grib2 2026-05-01 15:07 861K
20260501T12Z_MSC_RDPS_WindSpeed_IsbL-0950_RLatLon0.09_PT032H.grib2 2026-05-01 15:07 858K
20260501T12Z_MSC_RDPS_WindSpeed_IsbL-0970_RLatLon0.09_PT032H.grib2 2026-05-01 15:07 861K
20260501T12Z_MSC_RDPS_WindSpeed_IsbL-0985_RLatLon0.09_PT032H.grib2 2026-05-01 15:07 853K
20260501T12Z_MSC_RDPS_WindSpeed_IsbL-1000_RLatLon0.09_PT032H.grib2 2026-05-01 15:07 848K
20260501T12Z_MSC_RDPS_WindSpeed_IsbL-1015_RLatLon0.09_PT032H.grib2 2026-05-01 15:07 837K
20260501T12Z_MSC_RDPS_WindU_AGL-10m_RLatLon0.09_PT032H.grib2 2026-05-01 15:07 433K
20260501T12Z_MSC_RDPS_WindU_AGL-120m_RLatLon0.09_PT032H.grib2 2026-05-01 15:07 533K
20260501T12Z_MSC_RDPS_WindU_AGL-40m_RLatLon0.09_PT032H.grib2 2026-05-01 15:07 535K
20260501T12Z_MSC_RDPS_WindU_AGL-80m_RLatLon0.09_PT032H.grib2 2026-05-01 15:07 533K
20260501T12Z_MSC_RDPS_WindU_IsbL-0001_RLatLon0.09_PT032H.grib2 2026-05-01 15:07 292K
20260501T12Z_MSC_RDPS_WindU_IsbL-0005_RLatLon0.09_PT032H.grib2 2026-05-01 15:07 284K
20260501T12Z_MSC_RDPS_WindU_IsbL-0010_RLatLon0.09_PT032H.grib2 2026-05-01 15:07 296K
20260501T12Z_MSC_RDPS_WindU_IsbL-0020_RLatLon0.09_PT032H.grib2 2026-05-01 15:07 351K
20260501T12Z_MSC_RDPS_WindU_IsbL-0030_RLatLon0.09_PT032H.grib2 2026-05-01 15:07 351K
20260501T12Z_MSC_RDPS_WindU_IsbL-0050_RLatLon0.09_PT032H.grib2 2026-05-01 15:07 340K
20260501T12Z_MSC_RDPS_WindU_IsbL-0100_RLatLon0.09_PT032H.grib2 2026-05-01 15:07 429K
20260501T12Z_MSC_RDPS_WindU_IsbL-0150_RLatLon0.09_PT032H.grib2 2026-05-01 15:07 397K
20260501T12Z_MSC_RDPS_WindU_IsbL-0175_RLatLon0.09_PT032H.grib2 2026-05-01 15:07 420K
20260501T12Z_MSC_RDPS_WindU_IsbL-0200_RLatLon0.09_PT032H.grib2 2026-05-01 15:07 336K
20260501T12Z_MSC_RDPS_WindU_IsbL-0225_RLatLon0.09_PT032H.grib2 2026-05-01 15:07 340K
20260501T12Z_MSC_RDPS_WindU_IsbL-0250_RLatLon0.09_PT032H.grib2 2026-05-01 15:07 340K
20260501T12Z_MSC_RDPS_WindU_IsbL-0275_RLatLon0.09_PT032H.grib2 2026-05-01 15:07 354K
20260501T12Z_MSC_RDPS_WindU_IsbL-0300_RLatLon0.09_PT032H.grib2 2026-05-01 15:07 351K
20260501T12Z_MSC_RDPS_WindU_IsbL-0350_RLatLon0.09_PT032H.grib2 2026-05-01 15:07 361K
20260501T12Z_MSC_RDPS_WindU_IsbL-0400_RLatLon0.09_PT032H.grib2 2026-05-01 15:07 468K
20260501T12Z_MSC_RDPS_WindU_IsbL-0450_RLatLon0.09_PT032H.grib2 2026-05-01 15:07 466K
20260501T12Z_MSC_RDPS_WindU_IsbL-0500_RLatLon0.09_PT032H.grib2 2026-05-01 15:07 469K
20260501T12Z_MSC_RDPS_WindU_IsbL-0550_RLatLon0.09_PT032H.grib2 2026-05-01 15:07 473K
20260501T12Z_MSC_RDPS_WindU_IsbL-0600_RLatLon0.09_PT032H.grib2 2026-05-01 15:07 484K
20260501T12Z_MSC_RDPS_WindU_IsbL-0650_RLatLon0.09_PT032H.grib2 2026-05-01 15:07 485K
20260501T12Z_MSC_RDPS_WindU_IsbL-0700_RLatLon0.09_PT032H.grib2 2026-05-01 15:07 510K
20260501T12Z_MSC_RDPS_WindU_IsbL-0750_RLatLon0.09_PT032H.grib2 2026-05-01 15:07 537K
20260501T12Z_MSC_RDPS_WindU_IsbL-0800_RLatLon0.09_PT032H.grib2 2026-05-01 15:07 575K
20260501T12Z_MSC_RDPS_WindU_IsbL-0850_RLatLon0.09_PT032H.grib2 2026-05-01 15:07 622K
20260501T12Z_MSC_RDPS_WindU_IsbL-0875_RLatLon0.09_PT032H.grib2 2026-05-01 15:07 641K
20260501T12Z_MSC_RDPS_WindU_IsbL-0900_RLatLon0.09_PT032H.grib2 2026-05-01 15:07 652K
20260501T12Z_MSC_RDPS_WindU_IsbL-0925_RLatLon0.09_PT032H.grib2 2026-05-01 15:07 660K
20260501T12Z_MSC_RDPS_WindU_IsbL-0950_RLatLon0.09_PT032H.grib2 2026-05-01 15:07 655K
20260501T12Z_MSC_RDPS_WindU_IsbL-0970_RLatLon0.09_PT032H.grib2 2026-05-01 15:07 796K
20260501T12Z_MSC_RDPS_WindU_IsbL-0985_RLatLon0.09_PT032H.grib2 2026-05-01 15:07 791K
20260501T12Z_MSC_RDPS_WindU_IsbL-1000_RLatLon0.09_PT032H.grib2 2026-05-01 15:07 786K
20260501T12Z_MSC_RDPS_WindU_IsbL-1015_RLatLon0.09_PT032H.grib2 2026-05-01 15:07 825K
20260501T12Z_MSC_RDPS_WindV_AGL-10m_RLatLon0.09_PT032H.grib2 2026-05-01 15:07 431K
20260501T12Z_MSC_RDPS_WindV_AGL-120m_RLatLon0.09_PT032H.grib2 2026-05-01 15:07 414K
20260501T12Z_MSC_RDPS_WindV_AGL-40m_RLatLon0.09_PT032H.grib2 2026-05-01 15:07 532K
20260501T12Z_MSC_RDPS_WindV_AGL-80m_RLatLon0.09_PT032H.grib2 2026-05-01 15:07 414K
20260501T12Z_MSC_RDPS_WindV_IsbL-0001_RLatLon0.09_PT032H.grib2 2026-05-01 15:07 293K
20260501T12Z_MSC_RDPS_WindV_IsbL-0005_RLatLon0.09_PT032H.grib2 2026-05-01 15:07 286K
20260501T12Z_MSC_RDPS_WindV_IsbL-0010_RLatLon0.09_PT032H.grib2 2026-05-01 15:07 388K
20260501T12Z_MSC_RDPS_WindV_IsbL-0020_RLatLon0.09_PT032H.grib2 2026-05-01 15:07 314K
20260501T12Z_MSC_RDPS_WindV_IsbL-0030_RLatLon0.09_PT032H.grib2 2026-05-01 15:07 315K
20260501T12Z_MSC_RDPS_WindV_IsbL-0050_RLatLon0.09_PT032H.grib2 2026-05-01 15:07 341K
20260501T12Z_MSC_RDPS_WindV_IsbL-0100_RLatLon0.09_PT032H.grib2 2026-05-01 15:07 428K
20260501T12Z_MSC_RDPS_WindV_IsbL-0150_RLatLon0.09_PT032H.grib2 2026-05-01 15:07 395K
20260501T12Z_MSC_RDPS_WindV_IsbL-0175_RLatLon0.09_PT032H.grib2 2026-05-01 15:07 418K
20260501T12Z_MSC_RDPS_WindV_IsbL-0200_RLatLon0.09_PT032H.grib2 2026-05-01 15:07 335K
20260501T12Z_MSC_RDPS_WindV_IsbL-0225_RLatLon0.09_PT032H.grib2 2026-05-01 15:07 338K
20260501T12Z_MSC_RDPS_WindV_IsbL-0250_RLatLon0.09_PT032H.grib2 2026-05-01 15:07 339K
20260501T12Z_MSC_RDPS_WindV_IsbL-0275_RLatLon0.09_PT032H.grib2 2026-05-01 15:07 352K
20260501T12Z_MSC_RDPS_WindV_IsbL-0300_RLatLon0.09_PT032H.grib2 2026-05-01 15:07 349K
20260501T12Z_MSC_RDPS_WindV_IsbL-0350_RLatLon0.09_PT032H.grib2 2026-05-01 15:07 358K
20260501T12Z_MSC_RDPS_WindV_IsbL-0400_RLatLon0.09_PT032H.grib2 2026-05-01 15:07 361K
20260501T12Z_MSC_RDPS_WindV_IsbL-0450_RLatLon0.09_PT032H.grib2 2026-05-01 15:07 464K
20260501T12Z_MSC_RDPS_WindV_IsbL-0500_RLatLon0.09_PT032H.grib2 2026-05-01 15:07 466K
20260501T12Z_MSC_RDPS_WindV_IsbL-0550_RLatLon0.09_PT032H.grib2 2026-05-01 15:07 470K
20260501T12Z_MSC_RDPS_WindV_IsbL-0600_RLatLon0.09_PT032H.grib2 2026-05-01 15:07 464K
20260501T12Z_MSC_RDPS_WindV_IsbL-0650_RLatLon0.09_PT032H.grib2 2026-05-01 15:07 482K
20260501T12Z_MSC_RDPS_WindV_IsbL-0700_RLatLon0.09_PT032H.grib2 2026-05-01 15:07 506K
20260501T12Z_MSC_RDPS_WindV_IsbL-0750_RLatLon0.09_PT032H.grib2 2026-05-01 15:07 533K
20260501T12Z_MSC_RDPS_WindV_IsbL-0800_RLatLon0.09_PT032H.grib2 2026-05-01 15:07 570K
20260501T12Z_MSC_RDPS_WindV_IsbL-0850_RLatLon0.09_PT032H.grib2 2026-05-01 15:07 617K
20260501T12Z_MSC_RDPS_WindV_IsbL-0875_RLatLon0.09_PT032H.grib2 2026-05-01 15:07 636K
20260501T12Z_MSC_RDPS_WindV_IsbL-0900_RLatLon0.09_PT032H.grib2 2026-05-01 15:07 647K
20260501T12Z_MSC_RDPS_WindV_IsbL-0925_RLatLon0.09_PT032H.grib2 2026-05-01 15:07 655K
20260501T12Z_MSC_RDPS_WindV_IsbL-0950_RLatLon0.09_PT032H.grib2 2026-05-01 15:07 649K
20260501T12Z_MSC_RDPS_WindV_IsbL-0970_RLatLon0.09_PT032H.grib2 2026-05-01 15:07 650K
20260501T12Z_MSC_RDPS_WindV_IsbL-0985_RLatLon0.09_PT032H.grib2 2026-05-01 15:07 787K
20260501T12Z_MSC_RDPS_WindV_IsbL-1000_RLatLon0.09_PT032H.grib2 2026-05-01 15:07 782K
20260501T12Z_MSC_RDPS_WindV_IsbL-1015_RLatLon0.09_PT032H.grib2 2026-05-01 15:07 776K